User: anonymous   Login
Location: Fishcreek Rd Observing Site
(41.1865°N, 81.4271°W)
Time: 08:42:04
(UTC-05:00)
Language:

Iridium 45 - Orbit

View from above orbital plane
View from above orbital plane
View from above satellite
View from above satellite

Ground track
Ground track

The orbit data is extracted from the following two-line orbital elements,

1 25104U 97082A   14327.48923347  .00000387  00000-0  13120-3 0  9881
2 25104 087.0245 303.7973 0002676 108.7188 251.4299 14.34212054886118
Epoch (UTC): 23 November 2014 11:44:29
Eccentricity: 0.0002676
inclination: 87.0245°
perigee height: 776 km
apogee height: 779 km
right ascension of ascending node: 303.7973°
argument of perigee: 108.7188°
revolutions per day: 14.34212054
mean anomaly at epoch: 251.4299°
orbit number at epoch: 88611

The dashed part of the orbit path shows where the satellite is in the earth's shadow,  

DLR